sat.trackr.live / text

‹ back to catalog

QIANFAN-1

NORAD 60379 · 2024-140A

PAYLOAD ACTIVE UNKNOWN

§ Identity

Operator
Country
PRC
Launch date
2024-08-06
Launch site
TAISC
Launch vehicle
Mass (kg)
RCS (m²)

External: N2YO · Heavens-Above · Gunter

§ Orbital elements

Epoch: 2026-09-22T22:42:24.641856Z

Period
106.59 min
Inclination
88.9663°
Eccentricity
0.0019515
Mean motion
13.51026091 rev/d
Perigee alt
1,054.0 km
Apogee alt
1,083.0 km
Semi-major
7,446.6 km
B*
4.3055e-5
RAAN
269.7702°
Arg perigee
111.4964°
Mean anomaly
248.8270°
Rev number
10,572

§ Raw data

QIANFAN-11 60379U 24140A   26265.94611854  .00000040  00000+0  43055-4 0  99992 60379  88.9663 269.7702 0019515 111.4964 248.8270 13.51026091105721

JSON: /api/v1/satellites/60379 · /tle

For live sub-satellite position, see the globe view (requires WebGL).

§ Visibility from observer

Set your observer location to see the next 7 days of passes ≥ 10°. The values pass through the URL so the page stays shareable.

No JS? Fill the form by hand. The geolocation button needs JavaScript.